EW6088 Weather Reports


time (UTC)temp
C
wind
direction
speed
KPH
gust
KPH
rain 1hr
cm
rain 24hr
cm
rain mn
cm
humidity
%
barometer
mb
20260509000003 14 140 1.6 6.4 0.00 0.00 0.00 63 1017.9
20260508235403 14 136 1.6 4.8 0.00 0.00 0.00 63 1017.5
20260508234503 14 153 1.6 6.4 0.00 0.00 0.00 62 1017.7
20260508233603 15 151 1.6 6.4 0.00 0.00 0.00 61 1017.4
20260508232703 15 113 1.6 6.4 0.00 0.00 0.00 59 1017.5
20260508231803 15 152 1.6 9.7 0.00 0.00 0.00 57 1017.5
20260508230903 16 150 1.6 9.7 0.00 0.00 0.00 55 1017.7
20260508230024 17 143 1.6 4.8 0.00 0.00 0.00 53 1017.9
20260508225403 17 136 1.6 12.9 0.00 0.00 0.00 51 1017.5
20260508224503 17 141 3.2 12.9 0.00 0.00 0.00 50 1017.4
20260508223603 18 148 3.2 9.7 0.00 0.00 0.00 48 1017.5
20260508222703 19 62 1.6 9.7 0.00 0.00 0.00 46 1017.4
20260508221803 19 323 1.6 6.4 0.00 0.00 0.00 46 1017.4
20260508220924 19 138 1.6 9.7 0.00 0.00 0.00 45 1017.3
20260508220003 19 152 1.6 6.4 0.00 0.00 0.00 44 1017.3
20260508215403 18 322 1.6 6.4 0.00 0.00 0.00 43 1017.1
20260508214503 18 318 1.6 6.4 0.00 0.00 0.00 45 1016.9
20260508213603 18 144 1.6 6.4 0.00 0.00 0.00 45 1017.0
20260508212703 17 200 1.6 9.7 0.00 0.00 0.00 47 1017.0
20260508211803 18 290 1.6 6.4 0.00 0.00 0.00 48 1016.9
20260508210903 17 180 1.6 9.7 0.00 0.00 0.00 48 1017.2
20260508210003 17 241 3.2 11.3 0.00 0.00 0.00 47 1017.0
20260508205403 18 5 1.6 6.4 0.00 0.00 0.00 46 1017.1
20260508204503 18 82 3.2 11.3 0.00 0.00 0.00 43 1017.2
20260508203603 20 272 1.6 9.7 0.00 0.00 0.00 40 1017.3
20260508202703 19 276 3.2 16.1 0.00 0.00 0.00 43 1017.3
20260508201824 19 169 3.2 12.9 0.00 0.00 0.00 39 1017.7
20260508200903 19 239 3.2 12.9 0.00 0.00 0.00 38 1018.0
20260508200003 19 270 1.6 12.9 0.00 0.00 0.00 37 1018.3
20260508195403 19 182 3.2 12.9 0.00 0.00 0.00 39 1018.1
20260508194524 18 258 3.2 11.3 0.00 0.00 0.00 37 1018.1
20260508193603 18 122 3.2 14.5 0.00 0.00 0.00 36 1018.2
20260508192724 19 115 3.2 14.5 0.00 0.00 0.00 36 1018.4
20260508191803 19 194 3.2 11.3 0.00 0.00 0.00 36 1018.3
20260508190903 18 62 3.2 12.9 0.00 0.00 0.00 37 1018.5
20260508190003 18 292 3.2 14.5 0.00 0.00 0.00 34 1018.7
20260508185403 18 345 3.2 11.3 0.00 0.00 0.00 33 1018.5
20260508184503 18 153 3.2 12.9 0.00 0.00 0.00 35 1018.8
20260508183603 18 133 3.2 14.5 0.00 0.00 0.00 30 1018.8
20260508182703 18 80 3.2 12.9 0.00 0.00 0.00 35 1018.9
20260508181803 17 303 3.2 12.9 0.00 0.00 0.00 37 1019.1
20260508180903 17 110 3.2 16.1 0.00 0.00 0.00 36 1019.2
20260508180003 17 238 3.2 9.7 0.00 0.00 0.00 32 1019.1
20260508175403 17 81 3.2 14.5 0.00 0.00 0.00 33 1019.2
20260508174503 17 84 3.2 9.7 0.00 0.00 0.00 36 1019.3
20260508173603 17 160 3.2 9.7 0.00 0.00 0.00 33 1019.5
20260508172703 17 137 1.6 12.9 0.00 0.00 0.00 38 1019.4
20260508171803 17 304 3.2 12.9 0.00 0.00 0.00 35 1019.8
20260508170903 16 353 3.2 11.3 0.00 0.00 0.00 39 1019.6
20260508170003 16 94 3.2 12.9 0.00 0.00 0.00 38 1020.0
20260508165424 16 331 3.2 12.9 0.00 0.00 0.00 39 1020.0
20260508164503 16 337 3.2 12.9 0.00 0.00 0.00 40 1020.2
20260508163603 16 13 1.6 6.4 0.00 0.00 0.00 40 1019.9
20260508162703 15 152 1.6 11.3 0.00 0.00 0.00 36 1020.1
20260508161824 15 171 1.6 9.7 0.00 0.00 0.00 36 1020.2
20260508160924 15 32 1.6 9.7 0.00 0.00 0.00 36 1020.3
20260508160003 14 90 3.2 9.7 0.00 0.00 0.00 38 1020.4
20260508155403 14 258 3.2 6.4 0.00 0.00 0.00 46 1020.6
20260508154503 14 159 3.2 12.9 0.00 0.00 0.00 44 1020.5
20260508153603 14 192 1.6 6.4 0.00 0.00 0.00 45 1020.6
20260508152703 14 149 1.6 9.7 0.00 0.00 0.00 56 1020.9
20260508151803 14 316 1.6 6.4 0.00 0.00 0.00 57 1020.8
20260508150903 13 82 1.6 3.2 0.00 0.00 0.00 57 1020.8
20260508150004 12 284 1.6 9.7 0.00 0.00 0.00 63 1020.9
20260508145424 12 318 3.2 9.7 0.00 0.00 0.00 59 1020.5
20260508144503 12 259 1.6 11.3 0.00 0.00 0.00 61 1020.8
20260508143603 11 237 1.6 11.3 0.00 0.00 0.00 68 1020.5
20260508142703 11 147 1.6 6.4 0.00 0.00 0.00 68 1020.8
20260508141803 10 153 1.6 6.4 0.00 0.00 0.00 69 1020.6
20260508140903 10 140 1.6 6.4 0.00 0.00 0.00 72 1020.6
20260508140003 8 119 1.6 4.8 0.00 0.00 0.00 74 1020.5
20260508135403 8 147 1.6 4.8 0.00 0.00 0.00 71 1020.6
20260508134503 8 119 1.6 4.8 0.00 0.00 0.00 64 1020.4
20260508133603 7 54 0.0 1.6 0.00 0.00 0.00 66 1020.5
20260508132703 7 69 0.0 3.2 0.00 0.00 0.00 67 1020.2
20260508131803 6 55 0.0 3.2 0.00 0.00 0.00 61 1020.3
20260508130903 6 54 1.6 4.8 0.00 0.00 0.00 68 1020.3
20260508130024 6 60 1.6 4.8 0.00 0.00 0.00 64 1020.2
20260508125403 6 170 0.0 3.2 0.00 0.00 0.00 67 1020.3
20260508124503 5 334 1.6 4.8 0.00 0.00 0.00 68 1020.3
20260508123603 5 41 1.6 4.8 0.00 0.00 0.00 72 1020.1
20260508122703 4 101 1.6 4.8 0.00 0.00 0.00 77 1020.0
20260508121803 3 83 1.6 4.8 0.00 0.00 0.00 81 1020.0
20260508120903 3 77 0.0 4.8 0.00 0.00 0.00 90 1020.0
20260508120003 2 64 0.0 1.6 0.00 0.00 0.00 96 1019.8
20260508115403 2 0 0.0 0.0 0.00 0.00 0.00 96 1019.8
20260508114524 2 0 0.0 0.0 0.00 0.03 0.00 96 1019.8
20260508113603 2 0 0.0 0.0 0.00 0.05 0.00 94 1019.3
20260508112703 2 0 0.0 0.0 0.00 0.08 0.00 93 1019.1
20260508111803 2 0 0.0 0.0 0.00 0.08 0.00 93 1019.1
20260508110903 2 0 0.0 0.0 0.00 0.10 0.00 92 1018.9
20260508110003 2 0 0.0 0.0 0.00 0.10 0.00 92 1019.0
20260508105403 2 0 0.0 0.0 0.00 0.10 0.00 91 1018.9
20260508104503 2 66 0.0 1.6 0.00 0.10 0.00 92 1018.4
20260508103603 2 0 0.0 0.0 0.00 0.10 0.00 90 1018.2
20260508102703 3 0 0.0 0.0 0.00 0.13 0.00 89 1018.2
20260508101803 3 76 0.0 1.6 0.00 0.13 0.00 88 1018.1
20260508100903 3 54 0.0 4.8 0.00 0.13 0.00 88 1018.0
20260508100003 3 96 0.0 3.2 0.00 0.13 0.00 87 1017.9
20260508095403 3 134 1.6 6.4 0.00 0.13 0.00 86 1017.7
20260508094503 4 86 1.6 4.8 0.00 0.13 0.00 87 1017.7
20260508093603 4 75 1.6 4.8 0.00 0.13 0.00 87 1017.4
20260508092724 4 55 1.6 6.4 0.00 0.13 0.00 87 1017.4
20260508091803 4 35 3.2 12.9 0.00 0.13 0.00 87 1017.3
20260508090924 4 39 1.6 9.7 0.00 0.13 0.00 87 1017.0
20260508090003 5 35 3.2 16.1 0.00 0.13 0.00 87 1017.2
20260508085424 5 38 3.2 16.1 0.00 0.13 0.00 87 1017.1
20260508084503 5 44 3.2 12.9 0.00 0.13 0.00 88 1017.1
20260508083603 5 37 3.2 12.9 0.00 0.13 0.00 85 1017.1
20260508082703 5 60 3.2 9.7 0.00 0.13 0.00 86 1017.1
20260508081803 5 39 3.2 14.5 0.00 0.13 0.00 86 1017.2
20260508080903 5 75 1.6 9.7 0.00 0.13 0.00 87 1017.1
20260508080003 5 26 3.2 16.1 0.00 0.13 0.00 87 1017.0
20260508075403 5 59 3.2 6.4 0.00 0.13 0.00 87 1017.0
20260508074503 5 46 3.2 12.9 0.00 0.13 0.00 87 1016.8
20260508073603 6 46 4.8 14.5 0.00 0.13 0.00 87 1016.8
20260508072703 6 75 3.2 12.9 0.00 0.13 0.00 88 1016.7
20260508071803 6 48 3.2 11.3 0.00 0.13 0.00 89 1016.7
20260508070903 6 50 4.8 16.1 0.00 0.13 0.00 89 1016.4
20260508070003 6 66 4.8 17.7 0.00 0.13 0.00 91 1016.4
20260508065424 6 61 4.8 17.7 0.00 0.13 0.00 91 1016.4
20260508064503 6 33 4.8 17.7 0.00 0.13 0.00 92 1016.4
20260508063603 6 50 6.4 20.9 0.00 0.13 0.00 93 1016.2
20260508062703 6 32 4.8 20.9 0.00 0.13 0.00 93 1016.1
20260508061803 6 15 4.8 14.5 0.00 0.13 0.00 94 1016.2
20260508060924 6 15 6.4 24.1 0.00 0.13 0.00 94 1016.2
20260508060003 6 26 4.8 25.7 0.00 0.13 0.00 94 1016.2
20260508055424 6 18 6.4 25.7 0.00 0.13 0.00 95 1016.4
20260508054503 6 31 6.4 33.8 0.00 0.13 0.00 96 1016.3
20260508053603 6 36 6.4 24.1 0.00 0.13 0.00 96 1016.5
20260508052703 6 6 4.8 17.7 0.00 0.13 0.00 96 1016.3
20260508051803 7 10 6.4 22.5 0.00 0.13 0.00 96 1016.7
20260508050903 7 25 6.4 16.1 0.00 0.13 0.00 97 1016.7
20260508050003 7 24 6.4 24.1 0.00 0.13 0.00 97 1016.8
20260508045403 7 19 6.4 17.7 0.00 0.13 0.00 97 1016.8
20260508044503 7 20 4.8 20.9 0.00 0.13 0.00 98 1017.0
20260508043603 7 22 4.8 14.5 0.00 0.13 0.00 98 1016.9
20260508042703 6 24 4.8 20.9 0.00 0.15 0.00 98 1016.9
20260508041803 6 38 4.8 14.5 0.00 0.15 0.00 97 1017.0
20260508040903 6 20 4.8 17.7 0.00 0.15 0.00 97 1016.9
20260508040003 6 25 4.8 14.5 0.00 0.15 0.00 97 1017.1
20260508035403 6 31 4.8 14.5 0.00 0.15 0.15 97 1017.0
20260508034503 6 22 4.8 12.9 0.00 0.15 0.15 97 1016.8
20260508033603 6 27 3.2 12.9 0.00 0.15 0.15 97 1017.0
20260508032703 6 37 3.2 12.9 0.00 0.15 0.15 97 1017.2
20260508031803 6 31 4.8 14.5 0.00 0.15 0.15 97 1017.3
20260508030924 6 30 3.2 14.5 0.00 0.15 0.15 97 1017.1
20260508030024 6 34 3.2 12.9 0.00 0.15 0.15 97 1017.2
20260508025424 6 34 3.2 17.7 0.00 0.15 0.15 97 1017.0
20260508024524 6 36 3.2 14.5 0.00 0.15 0.15 97 1016.5
20260508023603 6 22 1.6 11.3 0.00 0.15 0.15 97 1016.9
20260508022703 6 31 3.2 11.3 0.00 0.15 0.15 96 1016.8
20260508021803 6 24 3.2 6.4 0.00 0.15 0.15 96 1016.9
20260508020903 6 27 3.2 12.9 0.00 0.18 0.15 96 1016.9
20260508020003 6 20 3.2 11.3 0.00 0.18 0.15 96 1016.7
20260508015403 6 25 3.2 12.9 0.00 0.18 0.15 96 1016.7
20260508014503 7 20 3.2 12.9 0.00 0.23 0.15 96 1016.4
20260508013624 7 31 3.2 11.3 0.00 0.30 0.15 95 1016.3
20260508012724 7 27 4.8 12.9 0.00 0.33 0.15 95 1016.1
20260508011803 7 30 4.8 14.5 0.00 0.33 0.15 94 1015.7
20260508010924 7 27 4.8 14.5 0.00 0.33 0.15 93 1015.8
20260508010024 7 26 3.2 16.1 0.00 0.33 0.15 92 1015.7
20260508005403 7 28 4.8 16.1 0.00 0.36 0.15 92 1015.5
20260508004503 7 23 4.8 14.5 0.00 0.36 0.15 91 1015.4
20260508003603 7 16 3.2 11.3 0.00 0.36 0.15 90 1015.2
20260508002703 7 20 4.8 14.5 0.00 0.36 0.15 90 1015.4
20260508001803 7 21 4.8 14.5 0.00 0.36 0.15 89 1015.2
20260508000903 8 26 4.8 16.1 0.00 0.36 0.15 89 1015.3